Location: La Pernelle
(49.6188°N, 1.2999°W)
Time: 09:29:18
(UTC+00:00)

SWAS - Pass Details

Date: 12 June 2021
Orbit: 581 x 588 km, 69.9° (Epoch: 26 July)

Event Time Altitude Azimuth Distance (km) Brightness Sun altitude
Rises 21:03:18 0° 200° (SSW) 2,804 7.6 -6.7°
Reaches altitude 10° 21:05:32 10° 197° (SSW) 1,908 6.8 -7.0°
Maximum altitude 21:09:45 63° 117° (ESE) 659 4.5 -7.4°
Drops below altitude 10° 21:14:00 10° 36° (NE) 1,918 7.3 -7.9°
Sets 21:16:15 0° 33° (NNE) 2,821 8.2 -8.1°
